Salt Lake City, UT

5:44 AM MDT on March 23, 2017 (GMT -0600)
Salt Lake City International

Weather History for KSLC - November, 2013

Change the Weather History Date:

Friday, November 1, 2013

  Actual Average Record
Temperature  
Mean Temperature 52 °F 47 °F  
Max Temperature 60 °F 57 °F 74 °F (2008)
Min Temperature 44 °F 36 °F 16 °F (1951)
Degree Days  
Heating Degree Days 13 18  
Month to date heating degree days 13 18  
Since 1 July heating degree days 451 486  
Cooling Degree Days 0 0  
Month to date cooling degree days 0 0  
Year to date cooling degree days 1768 1160  
Growing Degree Days 2 (Base 50)    
Moisture  
Dew Point 33 °F    
Average Humidity 47    
Maximum Humidity 65    
Minimum Humidity 29    
Precipitation  
Precipitation 0.00 in 0.05 in 0.97 in (1922)
Month to date precipitation 0.00 0.05  
Year to date precipitation 9.35 13.29  
Snow  
Snow 0.00 in 0.10 in 2.90 in (1956)
Month to date snowfall 0.0 0.1  
Since 1 July snowfall T 1.5  
Snow Depth 0.00 in    
Sea Level Pressure  
Sea Level Pressure 30.21 in    
Wind  
Wind Speed 5 mph (North)    
Max Wind Speed 13 mph    
Max Gust Speed 16 mph    
Visibility 10 miles    
Events      
T = Trace of Precipitation, MM = Missing Value Source: NWS Daily Summary

Daily Weather History Graph

Daily Weather History Graph

Search for Another Location

Airport or City:

Trip Planner

Search our weather history database for the weather conditions in past years. The results will help you decide how hot, cold, wet, or windy it might be!

Date:

Astronomy

Nov. 01, 2013 Rise Set
Actual Time 7:58 AM MDT 6:23 PM MDT
Civil Twilight 7:30 AM MDT 6:52 PM MDT
Nautical Twilight 6:57 AM MDT 7:24 PM MDT
Astronomical Twilight 6:25 AM MDT 7:56 PM MDT
Moon 5:54 AM MDT (11/1) 5:19 PM MDT (11/1)
Length of Visible Light 11h 21m
Length of Day
10h 24m
Waning Crescent, 4% of the Moon is Illuminated
Nov 1
Waning Crescent
Nov 3
New
Nov 9
First Quarter
Nov 17
Full
Nov 25
Last Quarter

Hourly Weather History & Observations

Time (MDT) Temp. Windchill Dew Point Humidity Pressure Visibility Wind Dir Wind Speed Gust Speed Precip Events Conditions
12:53 AM 53.1 °F - 30.0 °F 41% 30.12 in 10.0 mi Calm Calm - N/A   Mostly Cloudy
1:53 AM 53.1 °F - 35.1 °F 50% 30.12 in 10.0 mi WNW 8.1 mph - N/A   Mostly Cloudy
2:53 AM 52.0 °F - 35.1 °F 53% 30.14 in 10.0 mi WNW 8.1 mph - N/A   Mostly Cloudy
3:53 AM 52.0 °F - 36.0 °F 54% 30.16 in 10.0 mi NW 9.2 mph - N/A   Mostly Cloudy
4:53 AM 51.1 °F - 37.0 °F 59% 30.17 in 10.0 mi North 6.9 mph - N/A   Overcast
5:53 AM 46.9 °F - 36.0 °F 66% 30.20 in 10.0 mi North 6.9 mph - N/A   Scattered Clouds
6:53 AM 45.0 °F 41.8 °F 34.0 °F 65% 30.23 in 10.0 mi NNE 5.8 mph - N/A   Partly Cloudy
7:53 AM 48.0 °F - 36.0 °F 63% 30.23 in 10.0 mi North 8.1 mph - N/A   Mostly Cloudy
8:53 AM 48.9 °F - 36.0 °F 61% 30.26 in 10.0 mi NNE 4.6 mph - N/A   Mostly Cloudy
9:53 AM 51.1 °F - 36.0 °F 56% 30.28 in 10.0 mi Calm Calm - N/A   Mostly Cloudy
10:53 AM 55.0 °F - 34.0 °F 45% 30.27 in 10.0 mi Calm Calm - N/A   Scattered Clouds
11:53 AM 57.0 °F - 34.0 °F 42% 30.27 in 10.0 mi Calm Calm - N/A   Scattered Clouds
12:53 PM 55.9 °F - 33.1 °F 42% 30.25 in 10.0 mi Calm Calm - N/A   Scattered Clouds
1:53 PM 59.0 °F - 32.0 °F 36% 30.22 in 10.0 mi NW 5.8 mph - N/A   Scattered Clouds
2:53 PM 57.9 °F - 28.9 °F 33% 30.22 in 10.0 mi Calm Calm - N/A   Partly Cloudy
3:53 PM 59.0 °F - 28.0 °F 31% 30.19 in 10.0 mi Variable 5.8 mph - N/A   Partly Cloudy
4:53 PM 59.0 °F - 30.0 °F 33% 30.20 in 10.0 mi NNW 4.6 mph - N/A   Partly Cloudy
5:53 PM 57.0 °F - 30.9 °F 37% 30.21 in 10.0 mi North 3.5 mph - N/A   Clear
6:53 PM 55.0 °F - 30.0 °F 38% 30.21 in 10.0 mi NNW 3.5 mph - N/A   Clear
7:53 PM 48.0 °F - 30.9 °F 52% 30.23 in 10.0 mi SSE 3.5 mph - N/A   Clear
8:53 PM 46.9 °F - 30.9 °F 54% 30.22 in 10.0 mi SSE 8.1 mph - N/A   Clear
9:53 PM 46.0 °F 42.5 °F 30.0 °F 54% 30.21 in 10.0 mi SE 6.9 mph - N/A   Clear
10:53 PM 45.0 °F 41.2 °F 30.0 °F 56% 30.22 in 10.0 mi SE 6.9 mph - N/A   Clear
11:53 PM 43.0 °F 38.2 °F 30.0 °F 60% 30.19 in 10.0 mi South 8.1 mph - N/A   Clear